Northport, AL

7:21 AM CST on February 14, 2016 (GMT -0600)
Tuscaloosa Municipal

Weather History for KTCL - September, 2013

Change the Weather History Date:

Thursday, September 19, 2013

  Actual Average Record
Temperature  
Mean Temperature 80 °F 74 °F  
Max Temperature 91 °F 86 °F 100 °F (1954)
Min Temperature 69 °F 63 °F 44 °F (1981)
Degree Days  
Heating Degree Days 0 0  
Month to date heating degree days 0 0  
Since 1 July heating degree days 0 0  
Cooling Degree Days 15    
Growing Degree Days 30 (Base 50)    
Moisture  
Dew Point 64 °F    
Average Humidity 63    
Maximum Humidity 84    
Minimum Humidity 41    
Precipitation  
Precipitation 0.00 in 0.11 in 2.07 in (1953)
Month to date precipitation 0.08 2.24  
Year to date precipitation 38.90 38.11  
Sea Level Pressure  
Sea Level Pressure 30.08 in    
Wind  
Wind Speed 5 mph (ESE)    
Max Wind Speed 12 mph    
Max Gust Speed 18 mph    
Visibility 10 miles    
Events      
T = Trace of Precipitation, MM = Missing Value Source: NWS Daily Summary

Daily Weather History Graph

Daily Weather History Graph

Search for Another Location

Airport or City:

Trip Planner

Search our weather history database for the weather conditions in past years. The results will help you decide how hot, cold, wet, or windy it might be!

Date:

Astronomy

Sep. 19, 2013 Rise Set
Actual Time 6:36 AM CDT 6:50 PM CDT
Civil Twilight 6:11 AM CDT 7:15 PM CDT
Nautical Twilight 5:43 AM CDT 7:44 PM CDT
Astronomical Twilight 5:13 AM CDT 8:13 PM CDT
Moon 6:53 PM CDT (9/19) 6:42 AM CDT (9/19)
Length of Visible Light 13h 03m
Length of Day
12h 14m
Full, 100% of the Moon is Illuminated
Sep 19
Full
Sep 26
Last Quarter
Oct 4
New
Oct 11
First Quarter
Oct 18
Full

Hourly Weather History & Observations

Time (CDT) Temp. Heat Index Dew Point Humidity Pressure Visibility Wind Dir Wind Speed Gust Speed Precip Events Conditions
12:53 AM 75.9 °F - 66.0 °F 71% 30.09 in 10.0 mi ESE 6.9 mph - N/A   Clear
1:53 AM 75.0 °F - 64.9 °F 71% 30.09 in 10.0 mi SE 4.6 mph - N/A   Clear
2:53 AM 73.0 °F - 64.9 °F 76% 30.09 in 10.0 mi East 4.6 mph - N/A   Clear
3:53 AM 72.0 °F - 64.9 °F 78% 30.09 in 10.0 mi East 4.6 mph - N/A   Clear
4:53 AM 71.1 °F - 64.0 °F 78% 30.10 in 10.0 mi Variable 4.6 mph - N/A   Clear
5:53 AM 70.0 °F - 64.0 °F 81% 30.11 in 10.0 mi East 4.6 mph - N/A   Clear
6:53 AM 69.1 °F - 63.0 °F 81% 30.12 in 10.0 mi ENE 3.5 mph - N/A   Clear
7:53 AM 72.0 °F - 63.0 °F 73% 30.14 in 10.0 mi East 3.5 mph - N/A   Clear
8:53 AM 75.9 °F - 64.0 °F 67% 30.14 in 10.0 mi ESE 5.8 mph - N/A   Clear
9:53 AM 79.0 °F - 64.0 °F 60% 30.15 in 10.0 mi SE 6.9 mph - N/A   Clear
10:53 AM 82.9 °F 84.6 °F 64.9 °F 54% 30.14 in 10.0 mi SSE 8.1 mph - N/A   Clear
11:53 AM 84.0 °F 85.4 °F 64.0 °F 51% 30.12 in 10.0 mi East 3.5 mph - N/A   Clear
12:53 PM 87.1 °F 88.9 °F 64.9 °F 48% 30.11 in 10.0 mi Variable 6.9 mph - N/A   Clear
1:53 PM 88.0 °F 89.3 °F 64.0 °F 45% 30.08 in 10.0 mi Variable 3.5 mph - N/A   Clear
2:53 PM 90.0 °F 90.6 °F 63.0 °F 40% 30.05 in 10.0 mi South 6.9 mph - N/A   Scattered Clouds
3:53 PM 91.0 °F 92.6 °F 64.0 °F 41% 30.04 in 10.0 mi South 9.2 mph - N/A   Mostly Cloudy
4:53 PM 90.0 °F 90.6 °F 63.0 °F 40% 30.03 in 10.0 mi East 3.5 mph - N/A   Overcast
5:53 PM 87.1 °F 87.5 °F 62.1 °F 43% 30.02 in 10.0 mi South 8.1 mph - N/A   Clear
6:53 PM 84.0 °F 84.9 °F 63.0 °F 49% 30.02 in 10.0 mi SE 5.8 mph - N/A   Clear
7:53 PM 82.0 °F 83.4 °F 64.0 °F 54% 30.02 in 10.0 mi ESE 5.8 mph - N/A   Clear
8:53 PM 80.1 °F 81.5 °F 63.0 °F 56% 30.03 in 10.0 mi ESE 4.6 mph - N/A   Clear
9:53 PM 79.0 °F - 63.0 °F 58% 30.04 in 10.0 mi Calm Calm - N/A   Clear
10:53 PM 75.0 °F - 64.0 °F 69% 30.04 in 10.0 mi Calm Calm - N/A   Clear
11:53 PM 71.1 °F - 64.9 °F 81% 30.05 in 10.0 mi Calm Calm - N/A   Clear